CW9009 Weather Reports


Display with metric or nautical units.
time (UTC)temp
F
wind
direction
speed
MPH
gust
MPH
rain 1hr
in
rain 24hr
in
rain mn
in
humidity
%
barometer
mb
20260508090427 54 89 1.0 1.0 0.00 0.00 0.00 61 1013.4
20260508085427 54 239 1.0 2.0 0.00 0.00 0.00 60 1013.4
20260508084447 54 131 1.0 1.0 0.00 0.00 0.00 60 1013.4
20260508083427 55 140 1.0 1.0 0.00 0.00 0.00 58 1013.4
20260508082427 56 71 1.0 1.0 0.00 0.00 0.00 58 1013.4
20260508081427 56 112 1.0 1.0 0.00 0.00 0.00 58 1013.3
20260508080428 56 107 1.0 2.0 0.00 0.00 0.00 56 1013.3
20260508075428 57 118 1.0 1.0 0.00 0.00 0.00 56 1013.2
20260508074428 57 119 1.0 1.0 0.00 0.00 0.00 55 1013.1
20260508073448 58 114 1.0 1.0 0.00 0.00 0.00 54 1013.1
20260508072428 58 0 0.0 0.0 0.00 0.00 0.00 52 1013.0
20260508071449 59 107 1.0 1.0 0.00 0.00 0.00 50 1012.8
20260508070428 59 0 0.0 0.0 0.00 0.00 0.00 49 1012.8
20260508065449 60 0 0.0 0.0 0.00 0.00 0.00 48 1012.7
20260508064430 60 114 0.0 2.0 0.00 0.00 0.00 46 1012.7
20260508063430 61 113 1.0 1.0 0.00 0.00 0.00 46 1012.7
20260508062430 61 0.0 0.0 0.00 0.00 0.00 44 1012.6
20260508061430 61 84 0.0 1.0 0.00 0.00 0.00 44 1012.6
20260508060430 62 97 1.0 2.0 0.00 0.00 0.00 44 1012.5
20260508055430 62 137 1.0 1.0 0.00 0.00 0.00 46 1012.4
20260508054430 63 128 1.0 2.0 0.00 0.00 0.00 46 1012.4
20260508053431 63 106 0.0 1.0 0.00 0.00 0.00 44 1012.3
20260508052430 64 192 0.0 1.0 0.00 0.00 0.00 44 1012.2
20260508051431 65 0.0 0.0 0.00 0.00 0.00 42 1012.3
20260508050431 65 181 1.0 1.0 0.00 0.00 0.00 38 1012.3
20260508045431 66 183 0.0 1.0 0.00 0.00 0.00 36 1012.1
20260508044451 67 182 0.0 1.0 0.00 0.00 0.00 35 1012.1
20260508043417 67 108 0.0 1.0 0.00 0.00 0.00 32 1012.1
20260508042456 68 0.0 0.0 0.00 0.00 0.00 32 1012.1
20260508041437 68 0 0.0 0.0 0.00 0.00 0.00 31 1012.1
20260508040417 69 180 0.0 0.0 0.00 0.00 0.00 31 1012.1
20260508035417 70 61 0.0 1.0 0.00 0.00 0.00 30 1011.9
20260508034417 71 274 1.0 1.0 0.00 0.00 0.00 29 1011.8
20260508033418 71 0.0 0.0 0.00 0.00 0.00 29 1011.5
20260508032418 72 307 0.0 1.0 0.00 0.00 0.00 26 1011.5
20260508031418 73 189 0.0 0.0 0.00 0.00 0.00 25 1011.3
20260508030418 74 0.0 0.0 0.00 0.00 0.00 24 1011.2
20260508025418 75 0.0 0.0 0.00 0.00 0.00 23 1011.1
20260508024418 0 0.0 0.0 0.00 0.00 0.00
20260508023418 76 358 1.0 1.0 0.00 0.00 0.00 20 1010.9
20260508022419 0 296 0.0 1.0 0.00 0.00 0.00
20260508021418 0 0 0.0 0.0 0.00 0.00 0.00
20260508020419 79 286 2.0 2.0 0.00 0.00 0.00 18 1010.8
20260508015420 0 0.0 0.0 0.00 0.00 0.00
20260508014419 80 297 1.0 2.0 0.00 0.00 0.00 18 1010.8
20260508013419 81 0.0 0.0 0.00 0.00 0.00 19 1010.8
20260508012420 0 2 1.0 2.0 0.00 0.00 0.00
20260508011420 81 323 1.0 2.0 0.00 0.00 0.00 19 1010.8
20260508010421 81 294 1.0 1.0 0.00 0.00 0.00 19 1010.8
20260508005421 0 303 1.0 2.0 0.00 0.00 0.00
20260508004421 0 292 2.0 2.0 0.00 0.00 0.00
20260508003421 81 0 0.0 0.0 0.00 0.00 0.00 19 1010.9
20260508002441 82 279 1.0 1.0 0.00 0.00 0.00 20 1010.9
20260508001421 82 280 1.0 2.0 0.00 0.00 0.00 20 1010.9
20260508000422 82 301 2.0 2.0 0.00 0.00 0.00 20 1010.9
20260507235421 82 291 2.0 2.0 0.00 0.00 0.00 20 1011.0
20260507234421 81 274 2.0 3.0 0.00 0.00 0.00 23 1011.1
20260507233421 81 336 2.0 2.0 0.00 0.00 0.00 23 1011.2
20260507232422 81 278 2.0 4.0 0.00 0.00 0.00 23 1011.3
20260507231423 82 284 2.0 2.0 0.00 0.00 0.00 23 1011.3
20260507230422 0 256 1.0 1.0 0.00 0.00 0.00
20260507225422 82 271 2.0 3.0 0.00 0.00 0.00 23 1011.4
20260507224423 82 281 1.0 3.0 0.00 0.00 0.00 24 1011.5
20260507223503 81 283 2.0 3.0 0.00 0.00 0.00 24 1011.7
20260507222423 81 240 1.0 1.0 0.00 0.00 0.00 23 1011.8
20260507221423 81 275 2.0 2.0 0.00 0.00 0.00 23 1012.0
20260507220423 81 307 3.0 3.0 0.00 0.00 0.00 24 1012.1
20260507215423 81 260 1.0 2.0 0.00 0.00 0.00 25 1012.2
20260507214423 80 254 1.0 1.0 0.00 0.00 0.00 24 1012.3
20260507213444 80 306 0.0 1.0 0.00 0.00 0.00 25 1012.5
20260507212424 79 275 1.0 1.0 0.00 0.00 0.00 25 1012.6
20260507211424 79 308 1.0 1.0 0.00 0.00 0.00 28 1012.7
20260507210424 79 279 1.0 2.0 0.00 0.00 0.00 26 1012.8
20260507205424 79 0.0 0.0 0.00 0.00 0.00 28 1013.1
20260507204424 78 293 1.0 2.0 0.00 0.00 0.00 30 1013.0
20260507203425 78 258 1.0 2.0 0.00 0.00 0.00 28 1013.1
20260507202425 77 236 1.0 2.0 0.00 0.00 0.00 26 1013.3
20260507201426 77 261 1.0 2.0 0.00 0.00 0.00 28 1013.3
20260507200446 76 323 0.0 0.0 0.00 0.00 0.00 26 1013.4
20260507195425 76 0 0.0 0.0 0.00 0.00 0.00 28 1013.4
20260507194425 76 280 1.0 2.0 0.00 0.00 0.00 28 1013.5
20260507193426 75 64 0.0 1.0 0.00 0.00 0.00 28 1013.7
20260507192427 75 281 2.0 2.0 0.00 0.00 0.00 31 1013.8
20260507191426 74 277 0.0 1.0 0.00 0.00 0.00 31 1013.9
20260507190426 74 321 1.0 2.0 0.00 0.00 0.00 31 1014.0
20260507185427 74 272 1.0 2.0 0.00 0.00 0.00 32 1014.0
20260507184447 73 312 1.0 2.0 0.00 0.00 0.00 34 1014.3
20260507183427 72 243 1.0 1.0 0.00 0.00 0.00 34 1014.4
20260507182447 72 272 0.0 1.0 0.00 0.00 0.00 34 1014.6
20260507181427 72 259 1.0 1.0 0.00 0.00 0.00 34 1014.6
20260507180428 71 261 1.0 2.0 0.00 0.00 0.00 36 1014.7
20260507175428 71 280 1.0 1.0 0.00 0.00 0.00 36 1014.7
20260507174428 70 262 2.0 3.0 0.00 0.00 0.00 37 1014.8
20260507173428 70 0 0.0 0.0 0.00 0.00 0.00 38 1014.9
20260507172428 69 295 1.0 1.0 0.00 0.00 0.00 43 1014.9
20260507171429 68 252 1.0 2.0 0.00 0.00 0.00 43 1015.0
20260507170429 68 216 1.0 2.0 0.00 0.00 0.00 42 1015.1
20260507165429 67 316 0.0 1.0 0.00 0.00 0.00 44 1015.1
20260507164428 66 266 1.0 2.0 0.00 0.00 0.00 46 1015.3
20260507163429 65 249 1.0 1.0 0.00 0.00 0.00 44 1015.2
20260507162430 65 224 1.0 2.0 0.00 0.00 0.00 47 1015.3
20260507161429 64 116 0.0 1.0 0.00 0.00 0.00 49 1015.3
20260507160429 64 289 0.0 1.0 0.00 0.00 0.00 49 1015.3
20260507155430 63 244 1.0 1.0 0.00 0.00 0.00 49 1015.4
20260507154430 62 276 1.0 2.0 0.00 0.00 0.00 50 1015.4
20260507153430 62 0 0.0 0.0 0.00 0.00 0.00 53 1015.4
20260507152450 61 219 0.0 1.0 0.00 0.00 0.00 55 1015.7
20260507151430 59 294 0.0 1.0 0.00 0.00 0.00 58 1015.7
20260507150430 59 0.0 0.0 0.00 0.00 0.00 61 1015.7
20260507145430 58 0 0.0 0.0 0.00 0.00 0.00 62 1015.7
20260507144431 58 283 0.0 1.0 0.00 0.00 0.00 64 1015.6
20260507143431 57 0 0.0 0.0 0.00 0.00 0.00 64 1015.4
20260507142416 57 94 1.0 1.0 0.00 0.00 0.00 65 1015.6
20260507141416 56 106 0.0 1.0 0.00 0.00 0.00 66 1015.4
20260507140416 56 0.0 0.0 0.00 0.00 0.00 65 1015.3
20260507135432 56 105 2.0 2.0 0.00 0.00 0.00 62 1015.2
20260507134432 55 0.0 0.0 0.00 0.00 0.00 64 1015.1
20260507133417 55 113 1.0 1.0 0.00 0.00 0.00 65 1014.9
20260507132418 55 102 1.0 1.0 0.00 0.00 0.00 65 1014.9
20260507131418 55 86 1.0 1.0 0.00 0.00 0.00 64 1014.8
20260507130417 55 117 1.0 1.0 0.00 0.00 0.00 65 1014.8
20260507125418 55 36 0.0 0.0 0.00 0.00 0.00 65 1014.7
20260507124438 55 46 1.0 1.0 0.00 0.00 0.00 65 1014.6
20260507123418 54 36 1.0 1.0 0.00 0.00 0.00 66 1014.6
20260507122439 54 192 1.0 1.0 0.00 0.00 0.00 68 1014.6
20260507121419 54 142 1.0 1.0 0.00 0.00 0.00 69 1014.5
20260507120439 54 162 1.0 1.0 0.00 0.00 0.00 71 1014.5
20260507115439 54 108 1.0 1.0 0.00 0.00 0.00 71 1014.5
20260507114419 55 106 2.0 2.0 0.00 0.00 0.00 71 1014.6
20260507113419 55 105 1.0 1.0 0.00 0.00 0.00 71 1014.5
20260507112459 55 78 0.0 0.0 0.00 0.00 0.00 71 1014.5
20260507111419 56 0 0.0 0.0 0.00 0.00 0.00 69 1014.5
20260507110440 56 107 1.0 1.0 0.00 0.00 0.00 69 1014.5
20260507105420 56 111 1.0 2.0 0.00 0.00 0.00 69 1014.4
20260507104420 57 111 1.0 1.0 0.00 0.00 0.00 69 1014.3
20260507103420 57 133 1.0 1.0 0.00 0.00 0.00 69 1014.4
20260507102420 57 104 1.0 2.0 0.00 0.00 0.00 68 1014.1
20260507101420 58 110 2.0 2.0 0.00 0.00 0.00 66 1014.0
20260507100421 58 78 0.0 1.0 0.00 0.00 0.00 64 1013.9
20260507095421 58 0 0.0 0.0 0.00 0.00 0.00 64 1013.9
20260507094421 59 80 1.0 1.0 0.00 0.00 0.00 64 1013.8
20260507093421 60 0.0 0.0 0.00 0.00 0.00 62 1013.8
20260507092421 60 83 1.0 1.0 0.00 0.00 0.00 61 1013.8
20260507091422 60 155 1.0 1.0 0.00 0.00 0.00 61 1013.7